SCP
1 1 1 1 1 2 2 2 3 3 3 3 2 2 2 2 3 2 1 1 1 1 1 1 1 1 0 0 0 0 0 0 0 0 0 1 1 1 1 1 1 1 1
1 1 1 1 2 2 2 2 2 3 3 3 2 2 2 2 2 2 1 1 1 1 1 1 1 0 0 0 0 0 0 0 0 0 0 1 1 1 1 1 1 1 1
1 1 1 2 2 2 2 2 2 3 3 3 3 2 2 2 2 2 1 1 1 1 1 1 1 0 0 0 0 0 0 0 0 0 0 0 0 1 1 1 1 1 1
1 1 2 2 2 2 1 2 2 2 3 3 3 3 3 3 2 2 1 1 1 1 1 1 1 1 1 0 0 1 1 1 1 1 0 0 0 0 1 1 1 1 1
1 2 2 2 2 2 1 1 2 2 2 3 3 3 3 3 2 2 1 1 1 1 1 1 1 1 1 1 1 1 1 1 1 1 0 0 0 0 0 1 0 1 1
2 2 2 2 2 2 1 1 1 1 2 3 3 3 3 3 2 2 1 1 1 1 1 0 1 1 1 1 1 1 1 1 1 0 0 0 0 0 1 1 1 1 1
2 2 2 3 2 2 1 1 1 1 2 2 2 3 2 2 2 1 1 1 1 1 1 1 1 1 1 1 1 1 1 1 1 0 0 0 0 0 0 1 1 1 1
2 2 3 3 2 2 1 1 1 1 1 1 2 2 2 2 1 1 1 1 1 1 1 1 1 1 1 1 1 1 1 1 1 0 0 0 0 0 0 1 1 1 1
2 2 3 3 2 2 1 1 1 1 1 1 1 1 1 1 1 1 1 0 1 1 1 1 1 0 0 0 1 1 1 1 1 0 0 0 0 0 0 0 1 1 1
2 2 3 2 2 2 1 1 1 1 1 1 1 1 1 1 1 1 0 0 0 0 1 0 0 0 0 0 0 0 0 1 0 0 0 0 0 0 0 1 1 1 1
3 3 2 2 2 2 1 1 1 1 1 0 0 0 0 0 0 0 0 0 0 0 0 0 0 0 0 0 0 0 0 0 0 0 0 1 1 1 1 1 1 1 1
3 3 2 2 2 1 1 1 1 1 0 0 0 0 0 0 0 0 0 0 0 0 0 0 0 0 0 0 0 0 0 0 1 1 1 1 1 1 1 1 1 1 1
3 3 2 2 1 1 1 1 1 1 0 0 0 0 0 0 0 0 0 0 0 0 0 0 0 0 0 0 0 0 0 0 0 1 1 1 1 1 1 1 1 1 1
3 3 2 2 1 1 1 1 1 1 0 0 0 0 0 0 0 0 0 0 0 0 0 0 0 0 0 0 0 0 0 0 0 0 0 1 1 1 1 2 2 1 1
2 2 2 2 1 1 1 1 1 1 0 0 0 0 0 0 0 0 0 0 0 0 0 0 0 0 0 0 0 0 0 0 0 0 0 0 0 1 1 1 2 1 1
2 2 2 1 1 1 1 1 1 1 0 0 0 0 0 0 0 0 0 0 0 0 0 0 0 0 0 0 0 0 0 0 0 0 0 0 0 0 1 1 1 1 1
2 2 1 1 1 1 1 1 1 1 0 0 0 0 0 0 0 0 0 0 0 0 0 0 0 0 0 0 0 0 0 0 0 0 0 0 0 0 1 1 1 1 1
1 1 1 1 1 1 1 1 1 1 1 1 0 0 0 0 0 0 0 0 0 0 0 0 0 0 0 0 0 0 0 0 0 0 0 0 0 0 0 0 1 1 1
1 1 1 1 1 1 1 1 1 1 1 1 0 0 0 0 0 0 0 0 0 0 0 0 0 0 0 0 0 0 0 0 0 0 0 0 0 0 0 0 0 1 1
1 1 1 1 1 1 1 1 1 1 1 1 0 0 0 0 0 0 0 0 0 0 0 0 0 0 0 0 0 0 0 0 0 0 0 0 0 0 0 0 0 0 1
1 1 1 1 1 1 2 1 1 1 1 0 0 0 0 0 0 0 0 0 0 0 0 0 0 0 0 0 0 0 0 0 0 0 0 0 0 0 0 0 0 0 0
0 0 0 1 1 1 2 1 1 1 1 0 0 0 0 0 0 0 0 0 0 0 0 0 0 0 0 0 0 0 0 0 0 0 0 0 0 0 0 0 0 0 0
0 0 0 0 0 1 1 1 1 1 1 0 0 0 0 0 0 0 0 0 0 0 0 0 0 0 0 0 0 0 0 0 0 0 0 0 0 0 0 0 0 0 0
0 0 0 0 0 0 1 1 1 1 1 1 0 0 0 0 0 0 0 0 0 0 0 0 0 0 0 0 0 0 0 0 0 0 0 0 0 0 0 0 0 0 0
0 0 0 0 0 0 0 0 1 1 1 1 0 0 0 0 0 0 0 0 0 0 0 0 0 0 0 0 0 0 0 0 0 0 0 0 0 0 0 0 0 0 0
0 0 0 0 0 0 0 0 0 0 0 1 1 0 0 0 0 0 0 0 0 0 0 0 0 0 0 0 0 0 0 0 0 0 0 0 0 0 0 0 0 0 0
Wind_Speed
1 2 3 5 7 7 8 8 8 8 8 8 8 7 8 9 9 9 9 9 9 9 10 10 10 10 11 11 11 11 11 11 11 12 12 12 11 11 11 11 10 7 11
4 3 4 5 7 7 7 8 8 7 8 8 7 7 7 9 9 9 9 9 9 9 9 9 9 10 10 10 10 10 11 11 11 11 11 10 10 10 11 11 10 7 11
5 4 4 5 6 7 7 7 7 7 7 8 7 7 7 8 9 8 8 8 8 8 8 8 9 9 9 9 9 9 10 10 10 10 9 5 6 10 10 10 10 10 10
6 4 4 5 6 7 6 7 7 7 7 7 7 7 7 7 7 7 8 8 8 8 8 8 8 8 8 8 8 9 9 9 9 8 5 4 4 9 10 10 10 9 10
5 4 4 5 6 6 6 6 6 6 6 7 7 7 7 7 7 8 8 7 8 8 8 8 8 8 7 7 8 8 9 9 9 7 4 4 4 8 9 9 9 9 9
4 4 4 5 6 6 6 6 5 5 6 6 6 6 6 6 8 8 8 8 8 8 8 8 8 8 7 7 8 8 9 8 7 4 4 3 3 7 8 8 8 8 8
4 3 4 5 5 5 5 6 5 5 6 6 6 6 6 7 8 8 8 8 8 8 7 7 7 7 7 7 7 8 8 7 5 4 3 3 4 7 7 8 7 7 7
5 4 3 4 5 5 5 5 5 5 5 6 6 6 6 6 7 7 8 8 8 7 7 7 7 7 7 7 7 7 7 6 5 4 3 2 5 6 6 6 7 6 7
4 4 3 3 3 4 4 4 5 5 5 5 5 5 5 5 6 6 7 7 7 7 7 7 7 7 6 6 7 7 7 6 3 2 2 2 4 5 5 5 6 6 6
4 3 3 2 3 3 3 4 5 5 5 5 5 5 5 5 5 6 6 6 7 7 6 7 6 6 6 6 6 6 5 4 2 2 1 2 4 4 5 5 5 5 5
3 2 2 2 2 2 2 3 4 5 5 5 5 5 5 3 4 4 5 5 6 6 6 6 5 5 5 5 5 5 4 2 2 1 1 3 4 4 4 5 4 4 4
2 1 1 2 2 3 2 3 2 3 3 3 3 3 3 3 3 3 5 5 5 5 5 4 5 4 4 2 3 3 2 2 1 1 1 3 4 4 4 4 4 4 4
2 1 1 2 3 3 3 2 2 2 2 2 3 3 3 3 2 2 2 3 3 3 2 3 3 2 2 2 1 2 2 1 1 1 1 2 2 3 3 4 4 4 4
2 1 1 1 2 3 3 3 2 2 2 1 2 3 3 2 2 2 2 2 2 1 2 2 2 2 2 1 1 1 1 1 0 0 1 2 2 3 3 3 4 4 4
2 1 1 1 2 3 3 3 3 2 2 2 1 2 3 3 2 2 2 2 2 2 2 2 2 2 1 1 1 1 1 1 1 1 1 2 2 2 2 2 2 3 2
2 2 1 2 2 3 3 3 3 3 2 2 2 2 3 2 2 2 2 2 2 1 1 1 2 2 1 1 1 1 0 0 1 1 1 2 3 2 3 2 2 2 2
3 2 2 2 2 3 3 3 3 3 3 3 2 2 3 3 3 2 2 2 1 1 2 2 2 2 2 1 1 1 1 1 1 2 1 1 2 3 3 2 1 1 1
2 2 2 2 3 3 3 4 3 3 3 3 2 2 3 3 3 2 2 2 2 1 1 2 2 2 1 1 1 1 1 1 1 1 1 1 1 1 2 2 2 2 1
3 3 2 2 3 3 4 4 4 3 3 2 2 2 2 3 3 2 2 2 2 2 2 2 1 1 1 1 1 1 1 0 0 1 1 1 1 1 1 2 2 2 2
1 2 2 2 2 3 3 4 3 3 3 2 2 2 2 2 3 2 2 2 2 2 2 2 1 1 1 1 1 1 1 0 0 1 1 0 0 0 0 1 1 2 3
2 2 2 2 2 3 3 3 3 3 2 2 2 3 3 2 2 2 2 2 2 2 2 2 1 1 1 1 1 1 2 1 0 1 0 0 0 0 0 0 0 1 2
2 1 2 2 1 2 2 2 3 3 2 2 2 2 2 2 2 2 3 2 2 2 2 2 1 1 0 1 1 0 0 1 1 1 0 0 1 0 0 0 0 0 1
1 1 1 1 1 1 2 3 3 3 2 2 2 2 1 2 2 2 2 2 2 2 2 1 1 1 1 1 0 1 2 2 1 1 1 0 1 1 1 1 1 0 1
1 1 1 1 1 1 2 3 5 4 3 3 2 2 2 2 2 2 2 3 2 2 1 1 0 0 1 1 1 1 1 1 2 1 1 1 1 1 2 1 1 1 1
1 1 1 1 1 1 2 3 3 3 2 2 2 3 2 2 2 2 2 2 2 1 1 1 1 0 1 1 1 1 1 1 0 1 2 2 2 2 2 2 1 1 2
1 1 1 2 1 1 2 2 3 3 3 4 3 3 2 2 1 1 2 2 2 1 1 1 2 1 1 1 1 1 1 1 1 1 2 2 3 2 2 2 2 2 2
Wind_Direction
153 166 135 123 118 113 107 103 101 100 100 102 101 101 103 106 106 103 101 101 100 99 97 94 92 90 88 87 84 82 78 74 73 71 73 72 77 78 75 73 70 67 75
152 154 129 121 117 114 113 108 105 105 103 104 104 103 108 111 109 109 107 107 104 102 99 96 94 94 92 90 88 85 82 78 75 71 69 69 72 78 79 76 75 74 75
136 139 133 116 113 111 114 116 112 110 109 105 104 104 108 113 111 110 110 110 107 104 103 101 100 98 96 94 92 88 85 85 80 71 65 54 64 77 80 78 77 77 77
136 134 132 116 113 112 111 117 118 117 112 108 106 105 108 115 116 116 114 110 108 105 104 104 103 101 99 96 94 90 89 89 83 74 62 52 59 74 75 75 76 77 78
126 123 126 116 114 116 114 113 121 121 119 116 111 111 113 117 119 116 114 111 110 109 107 105 103 102 100 97 93 90 91 89 83 76 63 57 60 76 72 70 75 74 76
120 118 123 116 118 119 117 117 117 123 125 122 119 116 118 116 119 113 109 106 107 109 110 108 103 102 99 94 91 91 90 91 83 75 66 64 68 79 76 72 72 78 78
120 113 127 112 114 119 120 118 116 121 121 122 122 116 116 117 116 112 109 105 104 106 109 109 104 100 97 93 88 89 88 87 88 80 73 73 86 86 81 78 71 78 82
126 118 121 119 113 115 118 117 115 113 116 117 116 113 113 118 118 118 111 105 101 100 103 105 103 101 95 88 83 83 79 84 90 85 86 85 93 92 89 85 79 76 83
111 109 106 117 123 117 117 114 115 114 113 110 110 108 105 110 114 116 114 108 105 102 100 101 98 95 91 86 80 72 71 76 85 88 98 101 98 97 96 95 90 82 91
97 103 107 109 107 109 120 113 106 107 107 102 99 97 101 108 111 107 110 113 110 104 99 98 96 92 89 85 80 69 63 67 74 69 89 106 99 104 103 103 100 90 98
87 94 110 113 111 110 115 110 106 101 94 91 90 87 91 96 103 103 102 108 110 105 99 94 92 85 77 78 75 66 55 57 66 75 91 106 109 110 110 110 111 105 102
132 137 127 128 127 119 113 99 92 91 87 84 88 89 93 93 95 97 94 92 93 89 81 77 75 68 65 60 56 52 55 59 64 77 91 103 119 118 116 120 120 118 102
157 112 104 134 132 125 116 110 96 88 82 83 86 85 95 94 92 90 87 78 83 79 70 66 65 52 55 56 49 46 51 54 47 30 69 85 116 127 119 116 120 119 109
134 120 91 114 120 125 122 125 117 108 98 90 91 93 97 100 98 103 94 85 81 79 82 77 80 67 58 71 73 50 39 61 53 17 47 79 97 111 115 114 125 127 119
137 135 147 123 129 132 124 127 118 114 112 105 98 95 98 111 113 108 104 91 82 75 84 80 86 78 53 57 69 56 20 70 71 61 34 58 84 86 101 109 121 136 125
174 180 165 137 137 132 133 137 130 119 110 101 91 87 98 108 115 113 102 94 83 76 77 86 87 87 71 68 67 58 36 55 86 81 57 42 53 64 66 75 88 112 124
191 183 170 154 140 135 142 139 127 121 111 101 92 90 92 98 116 118 114 102 88 87 87 80 68 64 63 62 60 56 55 61 93 100 81 50 33 41 46 40 36 53 117
186 180 178 152 147 144 147 140 126 121 116 111 98 93 94 98 104 114 112 112 106 96 91 93 81 73 51 42 37 17 41 75 105 123 106 85 54 22 18 14 357 357 356
189 183 181 168 157 157 151 136 126 120 114 113 103 95 92 98 103 110 113 109 112 104 93 88 68 85 92 39 24 12 10 110 137 125 134 129 113 55 0 356 350 347 339
169 161 167 156 152 149 144 130 122 113 114 111 111 99 94 93 97 105 105 98 101 98 84 76 73 42 65 56 46 16 334 304 152 174 185 167 139 91 4 10 338 337 346
86 98 115 131 145 144 153 153 155 157 150 135 120 106 108 108 110 108 108 107 101 105 105 99 90 75 36 43 54 12 345 345 297 226 196 144 98 281 46 3 355 348 321
117 122 122 117 129 157 161 164 158 150 147 139 124 115 114 118 121 116 114 116 112 108 98 86 82 91 2 1 103 159 255 322 333 308 278 236 271 334 311 293 131 16 335
115 135 137 148 147 134 138 138 127 120 123 132 137 136 117 124 124 122 123 120 117 120 135 135 135 121 194 276 256 162 174 214 269 299 286 265 296 317 293 290 288 273 330
185 146 120 129 116 119 139 147 156 165 170 175 170 157 132 128 129 129 126 129 134 136 140 164 145 277 179 227 283 304 260 184 186 244 299 308 307 298 296 305 287 274 308
167 143 130 117 98 106 126 147 162 165 165 154 147 143 145 143 142 138 137 143 144 148 158 172 195 257 221 228 251 291 295 289 212 196 242 271 298 281 278 276 268 273 292
142 121 119 122 107 104 124 141 149 158 160 154 159 166 168 166 164 154 145 157 159 163 176 200 209 218 232 245 260 268 253 233 227 213 226 256 266 274 266 251 249 252 271